Weather Roundup
Issued by NWS Chicago, IL

Home | Current Version | Previous Version | Graphics & Text | Print | Product List | Glossary On
Versions: 1 2 3 4 5 6 7 8 9 10 11 12 13 14 15 16 17 18 19 20 21 22 23 24 25 26 27 28 29 30 31 32 33 34 35 36 37 38 39 40 41 42 43 44 45 46 47 48 49 50
000
NZUS59 KLOT 272312
HRRLOT

CHICAGO AREA WEATHER ROUNDUP
NATIONAL WEATHER SERVICE CHICAGO/ROMEOVILLE IL
600 PM CDT MON JUL 27 2015

NOTE: "FAIR" INDICATES FEW OR NO CLOUDS BELOW 12,000 FEET WITH NO
SIGNIFICANT WEATHER AND/OR OBSTRUCTIONS TO VISIBILITY.

* THESE STATIONS ARE NOT UNDER NWS QUALITY CONTROL. THEY ALSO MAY NOT
  REPORT WEATHER SUCH AS PRECIPITATION OR FOG.

ILZ005-006-012>014-019>023-280000-
NORTHEAST ILLINOIS

CITY           SKY/WX    TMP DP  RH WIND       PRES   REMARKS
OHARE          PTSUNNY   84  63  49 E12       29.97S HX  85
MIDWAY         PTSUNNY   85  62  46 E14       29.97S HX  85
AURORA         PTSUNNY   85  65  51 SE5       29.96F HX  86
LANSING*       MOSUNNY   82  61  49 NE7       29.97S HX  82
JOLIET*        PTSUNNY   86  64  48 SE8       29.95F HX  87
WAUKEGAN       MOSUNNY   78  63  59 NE7       30.00S HX  80
DUPAGE AIRPORT PTSUNNY   84  62  47 E7        29.96F HX  85
WHEELING       MOSUNNY   80  64  58 NE9       30.00S HX  82
KANKAKEE*      PTSUNNY   84  71  64 E8        29.95F HX  89
MORRIS*        PTSUNNY   83  68  62 E6        29.94F HX  86
LEWIS AIRPORT* PTSUNNY   85  56  37 SE6       29.96F HX  83
NORTHERLY IS     N/A     78  69  73 MISG        N/A  HX  80
$$

WIZ051-052-058>065-066-070>072-280000-
SOUTHEAST WISCONSIN

CITY           SKY/WX    TMP DP  RH WIND       PRES   REMARKS
MILWAUKEE      PTSUNNY   81  62  52 E6        30.00F HX  82
KENOSHA*       MOSUNNY   81  65  58 E7        30.01S HX  83
RACINE*        SUNNY     82  63  52 NE5       30.02F HX  83
BURLINGTON     MOSUNNY   82  59  45 E9        30.00F HX  82
WAUKESHA       SUNNY     81  57  44 SE14      30.02S HX  81
WEST BEND      PTSUNNY   82  59  44 CALM      30.02F HX  82
$$

INZ001>003-010>013-019-020-280000-
NORTHWEST INDIANA

CITY           SKY/WX    TMP DP  RH WIND       PRES   REMARKS
GARY*          PTSUNNY   81  68  65 NE13      29.98S HX  83
MICHIGAN CITY* NOT AVBL
RENSSELAER*    NOT AVBL
VALPARAISO     SUNNY     84  65  52 E6        29.97F HX  86
$$

LMZ740>746-280000-
SOUTHERN LAKE MICHIGAN

STATION/POSITION TIME  SKY/WX   TEMP WIND        PRES    VSBY
                                AIR  DIR/SP/G
                 (UTC)          (F)  (DEG/KT/KT) (MB)    (MI)
HARRISON CRIB    2200            75   40/ 11/ 12   N/A
BURNHAM HARBOR   2300            77  360/  7/  9   N/A
CALUMET HARBOR   2200            78   20/  8/ 13   N/A
BURNS HARBOR     2200            77   80/  9/ 11 1015.9F
MICHIGAN CITY    2200            75   30/ 10/ 11   N/A
$$

ABBREVIATIONS USED IN REMARKS
   TC - TEMPERATURE IN CELSIUS
  WCI - WIND CHILL INDEX
   HX - HEAT INDEX
  VSB - VISIBILITY
$$


USA.gov is the U.S. government's official web portal to all federal, state and local government web resources and services.